Today

Time Wind Dr Wind Spd
mph
Wind Gust
mph
Hum In
%
Humid
%
TempI
F
Temp
F
Raw Bar
in
Tot Rain
in
UV Solar
W/sqm
DailyRain
in
HourRain
in
24HrRain
in
RainRate
in
07/20/24 12:01:36 AM 360 0.0 0.0 50 54 79.3 77.6 29.933 13.07 0.0 0 0.00 0.00 0.00 0.00
07/20/24 12:02:25 AM 360 0.0 0.0 50 54 79.3 77.6 29.933 13.07 0.0 0 0.00 0.00 0.00 0.00
07/20/24 12:03:35 AM 360 0.0 0.0 50 53 79.2 77.6 29.933 13.07 0.0 0 0.00 0.00 0.00 0.00
07/20/24 12:04:27 AM 360 0.0 0.0 50 54 79.2 77.5 29.933 13.07 0.0 0 0.00 0.00 0.00 0.00
07/20/24 12:05:19 AM 360 0.0 0.0 50 54 79.2 77.5 29.931 13.07 0.0 0 0.00 0.00 0.00 0.00
07/20/24 12:06:29 AM 360 0.0 0.0 50 54 79.2 77.5 29.933 13.07 0.0 0 0.00 0.00 0.00 0.00
07/20/24 12:07:22 AM 360 0.0 0.0 50 53 79.2 77.4 29.933 13.07 0.0 0 0.00 0.00 0.00 0.00
07/20/24 12:08:41 AM 360 0.0 0.0 50 53 79.2 77.3 29.933 13.07 0.0 0 0.00 0.00 0.00 0.00
07/20/24 12:09:30 AM 360 0.0 0.0 50 53 79.2 77.3 29.933 13.07 0.0 0 0.00 0.00 0.00 0.00
07/20/24 12:10:22 AM 360 0.0 0.0 50 53 79.2 77.2 29.933 13.07 0.0 0 0.00 0.00 0.00 0.00
07/20/24 12:11:35 AM 360 0.0 0.0 50 53 79.2 77.2 29.932 13.07 0.0 0 0.00 0.00 0.00 0.00
07/20/24 12:12:28 AM 360 0.0 0.0 50 53 79.2 77.2 29.932 13.07 0.0 0 0.00 0.00 0.00 0.00
07/20/24 12:13:20 AM 360 0.0 0.0 50 53 79.2 77.1 29.932 13.07 0.0 0 0.00 0.00 0.00 0.00
07/20/24 12:14:27 AM 360 0.0 0.0 50 53 79.2 77.1 29.932 13.07 0.0 0 0.00 0.00 0.00 0.00
07/20/24 12:15:19 AM 360 0.0 0.0 50 53 79.1 77.1 29.929 13.07 0.0 0 0.00 0.00 0.00 0.00
07/20/24 12:16:30 AM 360 0.0 0.0 50 53 79.1 77.1 29.931 13.07 0.0 0 0.00 0.00 0.00 0.00
07/20/24 12:17:22 AM 360 0.0 0.0 50 53 79.1 77.1 29.931 13.07 0.0 0 0.00 0.00 0.00 0.00
07/20/24 12:18:35 AM 360 0.0 0.0 50 53 79.1 77.1 29.931 13.07 0.0 0 0.00 0.00 0.00 0.00
07/20/24 12:19:21 AM 360 0.0 0.0 50 53 79.1 77.1 29.931 13.07 0.0 0 0.00 0.00 0.00 0.00
07/20/24 12:20:35 AM 360 0.0 0.0 50 53 79.1 77.0 29.930 13.07 0.0 0 0.00 0.00 0.00 0.00
07/20/24 12:21:24 AM 360 0.0 0.0 50 53 79.1 77.0 29.930 13.07 0.0 0 0.00 0.00 0.00 0.00
07/20/24 12:23:29 AM 360 0.0 0.0 50 53 79.1 77.0 29.929 13.07 0.0 0 0.00 0.00 0.00 0.00
07/20/24 12:24:18 AM 360 0.0 0.0 50 53 79.1 76.9 29.929 13.07 0.0 0 0.00 0.00 0.00 0.00
07/20/24 12:25:28 AM 360 0.0 0.0 50 53 79.0 76.9 29.933 13.07 0.0 0 0.00 0.00 0.00 0.00
07/20/24 12:26:20 AM 360 0.0 0.0 50 53 79.1 76.9 29.931 13.07 0.0 0 0.00 0.00 0.00 0.00
07/20/24 12:27:31 AM 360 0.0 0.0 50 53 79.1 76.9 29.930 13.07 0.0 0 0.00 0.00 0.00 0.00
07/20/24 12:28:20 AM 360 0.0 0.0 50 53 79.1 76.8 29.930 13.07 0.0 0 0.00 0.00 0.00 0.00
07/20/24 12:29:30 AM 360 0.0 0.0 50 53 79.1 76.8 29.930 13.07 0.0 0 0.00 0.00 0.00 0.00
07/20/24 12:30:22 AM 360 0.0 0.0 50 53 79.1 76.8 29.930 13.07 0.0 0 0.00 0.00 0.00 0.00
07/20/24 12:31:33 AM 360 0.0 0.0 50 53 79.1 76.8 29.930 13.07 0.0 0 0.00 0.00 0.00 0.00
07/20/24 12:32:25 AM 360 0.0 0.0 50 53 79.1 76.8 29.930 13.07 0.0 0 0.00 0.00 0.00 0.00
07/20/24 12:33:35 AM 360 0.0 0.0 50 53 79.0 76.7 29.931 13.07 0.0 0 0.00 0.00 0.00 0.00
07/20/24 12:34:30 AM 360 0.0 0.0 50 53 79.1 76.7 29.928 13.07 0.0 0 0.00 0.00 0.00 0.00
07/20/24 12:36:29 AM 360 0.0 0.0 50 53 79.0 76.6 29.932 13.07 0.0 0 0.00 0.00 0.00 0.00
07/20/24 12:37:21 AM 360 0.0 0.0 50 53 79.0 76.6 29.932 13.07 0.0 0 0.00 0.00 0.00 0.00
07/20/24 12:38:31 AM 360 0.0 0.0 50 53 78.9 76.6 29.927 13.07 0.0 0 0.00 0.00 0.00 0.00
07/20/24 12:39:23 AM 360 0.0 0.0 50 53 78.9 76.6 29.927 13.07 0.0 0 0.00 0.00 0.00 0.00
07/20/24 12:40:31 AM 360 0.0 0.0 50 53 78.9 76.5 29.929 13.07 0.0 0 0.00 0.00 0.00 0.00
07/20/24 12:41:20 AM 360 0.0 0.0 50 53 78.9 76.5 29.929 13.07 0.0 0 0.00 0.00 0.00 0.00
07/20/24 12:42:33 AM 360 0.0 0.0 50 53 78.9 76.5 29.929 13.07 0.0 0 0.00 0.00 0.00 0.00
07/20/24 12:43:25 AM 360 0.0 0.0 50 53 78.9 76.5 29.929 13.07 0.0 0 0.00 0.00 0.00 0.00
07/20/24 12:44:35 AM 360 0.0 0.0 50 53 78.9 76.4 29.930 13.07 0.0 0 0.00 0.00 0.00 0.00
07/20/24 12:45:49 AM 360 0.0 0.0 50 53 78.9 76.4 29.930 13.07 0.0 0 0.00 0.00 0.00 0.00
07/20/24 12:46:20 AM 360 0.0 0.0 50 54 78.9 76.4 29.931 13.07 0.0 0 0.00 0.00 0.00 0.00
07/20/24 12:47:30 AM 360 0.0 0.0 50 54 78.9 76.4 29.932 13.07 0.0 0 0.00 0.00 0.00 0.00
07/20/24 12:48:22 AM 360 0.0 0.0 50 54 78.9 76.3 29.932 13.07 0.0 0 0.00 0.00 0.00 0.00
07/20/24 12:49:33 AM 360 0.0 0.0 50 54 78.9 76.3 29.928 13.07 0.0 0 0.00 0.00 0.00 0.00
07/20/24 12:50:25 AM 360 0.0 0.0 50 54 78.9 76.3 29.928 13.07 0.0 0 0.00 0.00 0.00 0.00
07/20/24 12:51:35 AM 360 0.0 0.0 50 54 78.8 76.3 29.927 13.07 0.0 0 0.00 0.00 0.00 0.00
07/20/24 12:52:27 AM 360 0.0 0.0 50 54 78.8 76.2 29.927 13.07 0.0 0 0.00 0.00 0.00 0.00
07/20/24 12:53:19 AM 360 0.0 0.0 50 54 78.8 76.2 29.928 13.07 0.0 0 0.00 0.00 0.00 0.00
07/20/24 12:54:30 AM 360 0.0 0.0 50 55 78.8 76.2 29.928 13.07 0.0 0 0.00 0.00 0.00 0.00
07/20/24 12:55:22 AM 360 0.0 0.0 50 54 78.8 76.2 29.928 13.07 0.0 0 0.00 0.00 0.00 0.00
07/20/24 12:56:29 AM 360 0.0 0.0 50 55 78.8 76.1 29.927 13.07 0.0 0 0.00 0.00 0.00 0.00
07/20/24 12:57:21 AM 360 0.0 0.0 50 54 78.8 76.0 29.927 13.07 0.0 0 0.00 0.00 0.00 0.00
07/20/24 12:58:32 AM 360 0.0 0.0 50 54 78.8 76.0 29.927 13.07 0.0 0 0.00 0.00 0.00 0.00
07/20/24 12:59:24 AM 360 0.0 0.0 50 54 78.8 76.0 29.927 13.07 0.0 0 0.00 0.00 0.00 0.00
07/20/24 1:00:19 AM 360 0.0 0.0 50 54 78.8 75.9 29.928 13.07 0.0 0 0.00 0.00 0.00 0.00
07/20/24 1:01:29 AM 360 0.0 0.0 50 54 78.8 75.9 29.926 13.07 0.0 0 0.00 0.00 0.00 0.00
07/20/24 1:02:18 AM 360 0.0 0.0 50 54 78.8 75.8 29.926 13.07 0.0 0 0.00 0.00 0.00 0.00
07/20/24 1:03:29 AM 360 0.0 0.0 50 55 78.8 75.8 29.926 13.07 0.0 0 0.00 0.00 0.00 0.00
07/20/24 1:04:21 AM 360 0.0 0.0 50 55 78.8 75.8 29.926 13.07 0.0 0 0.00 0.00 0.00 0.00
07/20/24 1:05:34 AM 360 0.0 0.0 50 55 78.8 75.8 29.925 13.07 0.0 0 0.00 0.00 0.00 0.00
07/20/24 1:06:23 AM 360 0.0 0.0 50 55 78.8 75.8 29.925 13.07 0.0 0 0.00 0.00 0.00 0.00
07/20/24 1:07:31 AM 360 0.0 0.0 50 55 78.8 75.7 29.926 13.07 0.0 0 0.00 0.00 0.00 0.00
07/20/24 1:08:26 AM 360 0.0 0.0 50 54 78.8 75.7 29.926 13.07 0.0 0 0.00 0.00 0.00 0.00
07/20/24 1:09:18 AM 360 0.0 0.0 50 54 78.8 75.7 29.924 13.07 0.0 0 0.00 0.00 0.00 0.00
07/20/24 1:10:28 AM 360 0.0 0.0 50 54 78.8 75.6 29.925 13.07 0.0 0 0.00 0.00 0.00 0.00
07/20/24 1:11:21 AM 360 0.0 0.0 50 54 78.8 75.6 29.925 13.07 0.0 0 0.00 0.00 0.00 0.00
07/20/24 1:12:28 AM 360 0.0 0.0 50 54 78.8 75.6 29.923 13.07 0.0 0 0.00 0.00 0.00 0.00
07/20/24 1:13:20 AM 360 0.0 0.0 50 54 78.8 75.6 29.923 13.07 0.0 0 0.00 0.00 0.00 0.00
07/20/24 1:14:34 AM 360 0.0 0.0 50 54 78.7 75.6 29.924 13.07 0.0 0 0.00 0.00 0.00 0.00
07/20/24 1:15:26 AM 360 0.0 0.0 50 55 78.7 75.6 29.924 13.07 0.0 0 0.00 0.00 0.00 0.00
07/20/24 1:16:36 AM 360 0.0 0.0 50 56 78.7 75.6 29.923 13.07 0.0 0 0.00 0.00 0.00 0.00
07/20/24 1:17:28 AM 360 0.0 0.0 50 56 78.7 75.5 29.924 13.07 0.0 0 0.00 0.00 0.00 0.00
07/20/24 1:18:36 AM 360 0.0 0.0 50 56 78.7 75.5 29.922 13.07 0.0 0 0.00 0.00 0.00 0.00
07/20/24 1:19:28 AM 360 0.0 0.0 50 56 78.7 75.5 29.924 13.07 0.0 0 0.00 0.00 0.00 0.00
07/20/24 1:20:23 AM 360 0.0 0.0 50 56 78.7 75.5 29.924 13.07 0.0 0 0.00 0.00 0.00 0.00
07/20/24 1:21:33 AM 360 0.0 0.0 50 56 78.7 75.4 29.925 13.07 0.0 0 0.00 0.00 0.00 0.00
07/20/24 1:22:26 AM 360 0.0 0.0 50 56 78.7 75.4 29.925 13.07 0.0 0 0.00 0.00 0.00 0.00
07/20/24 1:23:33 AM 360 0.0 0.0 50 56 78.7 75.3 29.923 13.07 0.0 0 0.00 0.00 0.00 0.00
07/20/24 1:24:25 AM 360 0.0 0.0 50 56 78.7 75.3 29.923 13.07 0.0 0 0.00 0.00 0.00 0.00
07/20/24 1:25:20 AM 360 0.0 0.0 50 56 78.7 75.2 29.926 13.07 0.0 0 0.00 0.00 0.00 0.00
07/20/24 1:26:31 AM 360 0.0 0.0 50 57 78.6 75.2 29.920 13.07 0.0 0 0.00 0.00 0.00 0.00
07/20/24 1:27:23 AM 360 0.0 0.0 50 57 78.6 75.1 29.920 13.07 0.0 0 0.00 0.00 0.00 0.00
07/20/24 1:28:30 AM 360 0.0 0.0 50 57 78.6 75.1 29.922 13.07 0.0 0 0.00 0.00 0.00 0.00
07/20/24 1:29:22 AM 360 0.0 0.0 50 57 78.6 75.0 29.922 13.07 0.0 0 0.00 0.00 0.00 0.00
07/20/24 1:30:57 AM 360 0.0 0.0 50 57 78.6 75.0 29.922 13.07 0.0 0 0.00 0.00 0.00 0.00
07/20/24 1:31:25 AM 360 0.0 0.0 50 57 78.6 75.0 29.922 13.07 0.0 0 0.00 0.00 0.00 0.00
07/20/24 1:32:20 AM 360 0.0 0.0 50 57 78.7 74.9 29.920 13.07 0.0 0 0.00 0.00 0.00 0.00
07/20/24 1:33:30 AM 360 0.0 0.0 50 57 78.7 74.9 29.919 13.07 0.0 0 0.00 0.00 0.00 0.00
07/20/24 1:34:20 AM 360 0.0 0.0 50 57 78.7 74.8 29.919 13.07 0.0 0 0.00 0.00 0.00 0.00
07/20/24 1:35:30 AM 360 0.0 0.0 50 57 78.6 74.8 29.922 13.07 0.0 0 0.00 0.00 0.00 0.00
07/20/24 1:36:22 AM 360 0.0 0.0 50 57 78.6 74.8 29.922 13.07 0.0 0 0.00 0.00 0.00 0.00
07/20/24 1:37:32 AM 360 0.0 0.0 50 57 78.6 74.7 29.920 13.07 0.0 0 0.00 0.00 0.00 0.00
07/20/24 1:38:28 AM 360 0.0 0.0 50 57 78.6 74.7 29.920 13.07 0.0 0 0.00 0.00 0.00 0.00
07/20/24 1:39:20 AM 360 0.0 0.0 50 57 78.6 74.6 29.918 13.07 0.0 0 0.00 0.00 0.00 0.00
07/20/24 1:40:27 AM 360 0.0 0.0 50 57 78.6 74.6 29.918 13.07 0.0 0 0.00 0.00 0.00 0.00
07/20/24 1:41:16 AM 360 0.0 0.0 50 57 78.5 74.5 29.918 13.07 0.0 0 0.00 0.00 0.00 0.00
07/20/24 1:42:30 AM 360 0.0 0.0 50 56 78.5 74.5 29.920 13.07 0.0 0 0.00 0.00 0.00 0.00
07/20/24 1:43:19 AM 360 0.0 0.0 50 56 78.5 74.4 29.920 13.07 0.0 0 0.00 0.00 0.00 0.00
07/20/24 1:44:35 AM 360 0.0 0.0 50 56 78.5 74.4 29.917 13.07 0.0 0 0.00 0.00 0.00 0.00
07/20/24 1:45:21 AM 360 0.0 0.0 50 56 78.5 74.3 29.917 13.07 0.0 0 0.00 0.00 0.00 0.00
07/20/24 1:46:32 AM 360 0.0 0.0 50 56 78.5 74.3 29.919 13.07 0.0 0 0.00 0.00 0.00 0.00
07/20/24 1:47:24 AM 360 0.0 0.0 50 57 78.5 74.3 29.919 13.07 0.0 0 0.00 0.00 0.00 0.00
07/20/24 1:48:34 AM 360 0.0 0.0 50 57 78.5 74.2 29.918 13.07 0.0 0 0.00 0.00 0.00 0.00
07/20/24 1:49:26 AM 360 0.0 0.0 50 57 78.5 74.2 29.918 13.07 0.0 0 0.00 0.00 0.00 0.00
07/20/24 1:50:34 AM 360 0.0 0.0 50 57 78.5 74.1 29.917 13.07 0.0 0 0.00 0.00 0.00 0.00
07/20/24 1:51:26 AM 360 0.0 0.0 50 56 78.5 74.1 29.917 13.07 0.0 0 0.00 0.00 0.00 0.00
07/20/24 1:52:18 AM 360 0.0 0.0 50 56 78.5 74.0 29.919 13.07 0.0 0 0.00 0.00 0.00 0.00
07/20/24 1:53:31 AM 360 0.0 0.0 50 56 78.5 74.0 29.916 13.07 0.0 0 0.00 0.00 0.00 0.00
07/20/24 1:54:24 AM 360 0.0 0.0 50 56 78.5 74.0 29.916 13.07 0.0 0 0.00 0.00 0.00 0.00
07/20/24 1:55:28 AM 360 0.0 0.0 50 56 78.4 73.9 29.916 13.07 0.0 0 0.00 0.00 0.00 0.00
07/20/24 1:56:20 AM 360 0.0 0.0 50 56 78.4 73.9 29.916 13.07 0.0 0 0.00 0.00 0.00 0.00
07/20/24 1:57:30 AM 360 0.0 0.0 50 56 78.4 73.9 29.916 13.07 0.0 0 0.00 0.00 0.00 0.00
07/20/24 1:58:23 AM 360 0.0 0.0 50 56 78.4 73.9 29.916 13.07 0.0 0 0.00 0.00 0.00 0.00
07/20/24 1:59:33 AM 360 0.0 0.0 50 57 78.4 73.9 29.915 13.07 0.0 0 0.00 0.00 0.00 0.00
07/20/24 2:00:25 AM 360 0.0 0.0 50 57 78.4 73.8 29.915 13.07 0.0 0 0.00 0.00 0.00 0.00
07/20/24 2:01:32 AM 360 0.0 0.0 50 57 78.4 73.8 29.914 13.07 0.0 0 0.00 0.00 0.00 0.00
07/20/24 2:02:22 AM 360 0.0 0.0 50 57 78.4 73.8 29.914 13.07 0.0 0 0.00 0.00 0.00 0.00
07/20/24 2:03:35 AM 360 0.0 0.0 50 57 78.4 73.7 29.913 13.07 0.0 0 0.00 0.00 0.00 0.00
07/20/24 2:04:27 AM 360 0.0 0.0 50 57 78.4 73.7 29.913 13.07 0.0 0 0.00 0.00 0.00 0.00
07/20/24 2:05:17 AM 360 0.0 0.0 50 56 78.4 73.7 29.913 13.07 0.0 0 0.00 0.00 0.00 0.00
07/20/24 2:06:24 AM 360 0.0 0.0 50 56 78.4 73.6 29.911 13.07 0.0 0 0.00 0.00 0.00 0.00
07/20/24 2:07:37 AM 360 0.0 0.0 50 56 78.3 73.6 29.913 13.07 0.0 0 0.00 0.00 0.00 0.00
07/20/24 2:08:39 AM 360 0.0 0.0 50 56 78.3 73.6 29.913 13.07 0.0 0 0.00 0.00 0.00 0.00
07/20/24 2:09:28 AM 360 0.0 0.0 50 56 78.3 73.5 29.913 13.07 0.0 0 0.00 0.00 0.00 0.00
07/20/24 2:10:20 AM 360 0.0 0.0 50 56 78.3 73.5 29.913 13.07 0.0 0 0.00 0.00 0.00 0.00
07/20/24 2:11:27 AM 360 0.0 0.0 50 56 78.3 73.5 29.913 13.07 0.0 0 0.00 0.00 0.00 0.00
07/20/24 2:12:20 AM 360 0.0 0.0 50 56 78.3 73.5 29.913 13.07 0.0 0 0.00 0.00 0.00 0.00
07/20/24 2:13:30 AM 360 0.0 0.0 50 56 78.3 73.4 29.911 13.07 0.0 0 0.00 0.00 0.00 0.00
07/20/24 2:14:22 AM 360 0.0 0.0 50 56 78.3 73.4 29.911 13.07 0.0 0 0.00 0.00 0.00 0.00
07/20/24 2:15:36 AM 360 0.0 0.0 50 56 78.3 73.4 29.911 13.07 0.0 0 0.00 0.00 0.00 0.00
07/20/24 2:16:25 AM 360 0.0 0.0 50 56 78.3 73.4 29.911 13.07 0.0 0 0.00 0.00 0.00 0.00
07/20/24 2:17:32 AM 360 0.0 0.0 50 57 78.3 73.3 29.913 13.07 0.0 0 0.00 0.00 0.00 0.00
07/20/24 2:18:24 AM 360 0.0 0.0 50 57 78.3 73.3 29.913 13.07 0.0 0 0.00 0.00 0.00 0.00
07/20/24 2:19:17 AM 360 0.0 0.0 50 57 78.3 73.3 29.912 13.07 0.0 0 0.00 0.00 0.00 0.00
07/20/24 2:20:27 AM 360 0.0 0.0 50 57 78.3 73.3 29.912 13.07 0.0 0 0.00 0.00 0.00 0.00
07/20/24 2:21:19 AM 360 0.0 0.0 50 57 78.3 73.3 29.913 13.07 0.0 0 0.00 0.00 0.00 0.00
07/20/24 2:22:26 AM 360 0.0 0.0 50 57 78.4 73.3 29.913 13.07 0.0 0 0.00 0.00 0.00 0.00
07/20/24 2:23:16 AM 360 0.0 0.0 50 57 78.3 73.3 29.915 13.07 0.0 0 0.00 0.00 0.00 0.00
07/20/24 2:24:29 AM 360 0.0 0.0 50 57 78.3 73.2 29.913 13.07 0.0 0 0.00 0.00 0.00 0.00
07/20/24 2:25:21 AM 360 0.0 0.0 50 57 78.3 73.2 29.913 13.07 0.0 0 0.00 0.00 0.00 0.00
07/20/24 2:26:31 AM 360 0.0 0.0 50 57 78.3 73.2 29.914 13.07 0.0 0 0.00 0.00 0.00 0.00
07/20/24 2:27:18 AM 360 0.0 0.0 50 57 78.3 73.2 29.914 13.07 0.0 0 0.00 0.00 0.00 0.00
07/20/24 2:28:31 AM 360 0.0 0.0 50 57 78.3 73.1 29.911 13.07 0.0 0 0.00 0.00 0.00 0.00
07/20/24 2:29:20 AM 360 0.0 0.0 50 57 78.3 73.1 29.911 13.07 0.0 0 0.00 0.00 0.00 0.00
07/20/24 2:30:34 AM 360 0.0 0.0 50 57 78.3 73.1 29.914 13.07 0.0 0 0.00 0.00 0.00 0.00
07/20/24 2:31:23 AM 360 0.0 0.0 50 58 78.3 73.0 29.914 13.07 0.0 0 0.00 0.00 0.00 0.00
07/20/24 2:32:15 AM 360 0.0 0.0 50 57 78.3 73.0 29.911 13.07 0.0 0 0.00 0.00 0.00 0.00
07/20/24 2:33:25 AM 360 0.0 0.0 50 57 78.3 73.0 29.913 13.07 0.0 0 0.00 0.00 0.00 0.00
07/20/24 2:34:36 AM 360 0.0 0.0 50 57 78.2 72.9 29.914 13.07 0.0 0 0.00 0.00 0.00 0.00
07/20/24 2:35:28 AM 360 0.0 0.0 51 57 78.2 72.9 29.914 13.07 0.0 0 0.00 0.00 0.00 0.00
07/20/24 2:36:20 AM 360 0.0 0.0 51 57 78.2 72.8 29.914 13.07 0.0 0 0.00 0.00 0.00 0.00
07/20/24 2:37:34 AM 360 0.0 0.0 51 58 78.2 72.8 29.910 13.07 0.0 0 0.00 0.00 0.00 0.00
07/20/24 2:38:23 AM 360 0.0 0.0 51 58 78.2 72.8 29.910 13.07 0.0 0 0.00 0.00 0.00 0.00
07/20/24 2:39:33 AM 360 0.0 0.0 51 58 78.2 72.8 29.911 13.07 0.0 0 0.00 0.00 0.00 0.00
07/20/24 2:40:23 AM 360 0.0 0.0 51 58 78.2 72.8 29.911 13.07 0.0 0 0.00 0.00 0.00 0.00
07/20/24 2:41:36 AM 360 0.0 0.0 51 58 78.2 72.7 29.911 13.07 0.0 0 0.00 0.00 0.00 0.00
07/20/24 2:42:28 AM 360 0.0 0.0 51 58 78.2 72.7 29.912 13.07 0.0 0 0.00 0.00 0.00 0.00
07/20/24 2:44:30 AM 360 0.0 0.0 51 58 78.2 72.6 29.912 13.07 0.0 0 0.00 0.00 0.00 0.00
07/20/24 2:45:22 AM 360 0.0 0.0 51 58 78.2 72.6 29.912 13.07 0.0 0 0.00 0.00 0.00 0.00
07/20/24 2:46:32 AM 360 0.0 0.0 51 58 78.2 72.6 29.910 13.07 0.0 0 0.00 0.00 0.00 0.00
07/20/24 2:47:25 AM 360 0.0 0.0 51 58 78.2 72.6 29.910 13.07 0.0 0 0.00 0.00 0.00 0.00
07/20/24 2:48:32 AM 360 0.0 0.0 51 57 78.1 72.6 29.910 13.07 0.0 0 0.00 0.00 0.00 0.00
07/20/24 2:49:21 AM 360 0.0 0.0 51 57 78.1 72.6 29.910 13.07 0.0 0 0.00 0.00 0.00 0.00
07/20/24 2:50:34 AM 360 0.0 0.0 51 57 78.1 72.5 29.908 13.07 0.0 0 0.00 0.00 0.00 0.00
07/20/24 2:51:24 AM 360 0.0 0.0 51 57 78.1 72.5 29.908 13.07 0.0 0 0.00 0.00 0.00 0.00
07/20/24 2:52:16 AM 360 0.0 0.0 51 57 78.1 72.5 29.910 13.07 0.0 0 0.00 0.00 0.00 0.00
07/20/24 2:53:29 AM 360 0.0 0.0 51 58 78.1 72.5 29.908 13.07 0.0 0 0.00 0.00 0.00 0.00
07/20/24 2:55:28 AM 360 0.0 0.0 51 57 78.1 72.5 29.907 13.07 0.0 0 0.00 0.00 0.00 0.00
07/20/24 2:56:20 AM 360 0.0 0.0 51 57 78.1 72.5 29.907 13.07 0.0 0 0.00 0.00 0.00 0.00
07/20/24 2:57:31 AM 360 0.0 0.0 51 57 78.1 72.5 29.908 13.07 0.0 0 0.00 0.00 0.00 0.00
07/20/24 2:58:23 AM 360 0.0 0.0 51 57 78.1 72.4 29.908 13.07 0.0 0 0.00 0.00 0.00 0.00
07/20/24 2:59:30 AM 360 0.0 0.0 51 57 78.0 72.4 29.911 13.07 0.0 0 0.00 0.00 0.00 0.00
07/20/24 3:00:23 AM 360 0.0 0.0 51 57 78.0 72.4 29.911 13.07 0.0 0 0.00 0.00 0.00 0.00
07/20/24 3:01:33 AM 360 0.0 0.0 51 57 78.0 72.4 29.913 13.07 0.0 0 0.00 0.00 0.00 0.00
07/20/24 3:02:22 AM 360 0.0 0.0 51 57 78.0 72.3 29.913 13.07 0.0 0 0.00 0.00 0.00 0.00
07/20/24 3:03:35 AM 360 0.0 0.0 51 57 78.0 72.3 29.912 13.07 0.0 0 0.00 0.00 0.00 0.00
07/20/24 3:04:25 AM 360 0.0 0.0 51 57 78.0 72.3 29.912 13.07 0.0 0 0.00 0.00 0.00 0.00
07/20/24 3:05:35 AM 360 0.0 0.0 51 57 78.0 72.3 29.911 13.07 0.0 0 0.00 0.00 0.00 0.00
07/20/24 3:06:27 AM 360 0.0 0.0 51 57 78.0 72.3 29.910 13.07 0.0 0 0.00 0.00 0.00 0.00
07/20/24 3:07:19 AM 360 0.0 0.0 51 57 78.0 72.3 29.910 13.07 0.0 0 0.00 0.00 0.00 0.00
07/20/24 3:08:33 AM 360 0.0 0.0 51 57 77.9 72.3 29.909 13.07 0.0 0 0.00 0.00 0.00 0.00
07/20/24 3:09:25 AM 360 0.0 0.0 51 57 77.9 72.2 29.909 13.07 0.0 0 0.00 0.00 0.00 0.00
07/20/24 3:10:32 AM 360 0.0 0.0 51 57 77.9 72.2 29.912 13.07 0.0 0 0.00 0.00 0.00 0.00
07/20/24 3:11:25 AM 360 0.0 0.0 51 57 77.9 72.2 29.912 13.07 0.0 0 0.00 0.00 0.00 0.00
07/20/24 3:12:17 AM 360 0.0 0.0 51 58 78.0 72.2 29.910 13.07 0.0 0 0.00 0.00 0.00 0.00
07/20/24 3:13:27 AM 360 0.0 0.0 51 58 77.9 72.2 29.912 13.07 0.0 0 0.00 0.00 0.00 0.00
07/20/24 3:14:20 AM 360 0.0 0.0 51 57 77.9 72.2 29.909 13.07 0.0 0 0.00 0.00 0.00 0.00
07/20/24 3:15:48 AM 360 0.0 0.0 51 57 78.0 72.1 29.910 13.07 0.0 0 0.00 0.00 0.00 0.00
07/20/24 3:16:19 AM 360 0.0 0.0 51 57 77.9 72.1 29.909 13.07 0.0 0 0.00 0.00 0.00 0.00
07/20/24 3:17:33 AM 360 0.0 0.0 51 57 77.9 72.1 29.909 13.07 0.0 0 0.00 0.00 0.00 0.00
07/20/24 3:18:25 AM 360 0.0 0.0 51 57 77.9 72.1 29.909 13.07 0.0 0 0.00 0.00 0.00 0.00
07/20/24 3:19:35 AM 360 0.0 0.0 51 57 77.9 72.1 29.908 13.07 0.0 0 0.00 0.00 0.00 0.00
07/20/24 3:20:24 AM 360 0.0 0.0 51 57 77.9 72.0 29.908 13.07 0.0 0 0.00 0.00 0.00 0.00
07/20/24 3:21:35 AM 360 0.0 0.0 51 57 77.9 72.0 29.908 13.07 0.0 0 0.00 0.00 0.00 0.00
07/20/24 3:22:24 AM 360 0.0 0.0 51 56 77.9 72.0 29.908 13.07 0.0 0 0.00 0.00 0.00 0.00
07/20/24 3:23:16 AM 360 0.0 0.0 51 56 77.9 71.9 29.906 13.07 0.0 0 0.00 0.00 0.00 0.00
07/20/24 3:24:27 AM 360 0.0 0.0 51 56 77.9 71.9 29.905 13.07 0.0 0 0.00 0.00 0.00 0.00
07/20/24 3:25:19 AM 360 0.0 0.0 51 56 77.9 71.9 29.905 13.07 0.0 0 0.00 0.00 0.00 0.00
07/20/24 3:26:26 AM 360 0.0 0.0 51 56 77.9 71.8 29.906 13.07 0.0 0 0.00 0.00 0.00 0.00
07/20/24 3:27:19 AM 360 0.0 0.0 51 56 77.8 71.8 29.904 13.07 0.0 0 0.00 0.00 0.00 0.00
07/20/24 3:28:29 AM 360 0.0 0.0 51 56 77.9 71.8 29.905 13.07 0.0 0 0.00 0.00 0.00 0.00
07/20/24 3:29:21 AM 360 0.0 0.0 51 56 77.9 71.8 29.905 13.07 0.0 0 0.00 0.00 0.00 0.00
07/20/24 3:30:35 AM 360 0.0 0.0 51 56 77.8 71.8 29.907 13.07 0.0 0 0.00 0.00 0.00 0.00
07/20/24 3:31:21 AM 360 0.0 0.0 51 57 77.8 71.8 29.907 13.07 0.0 0 0.00 0.00 0.00 0.00
07/20/24 3:32:31 AM 360 0.0 0.0 51 57 77.9 71.8 29.906 13.07 0.0 0 0.00 0.00 0.00 0.00
07/20/24 3:33:24 AM 360 0.0 0.0 51 57 77.9 71.7 29.906 13.07 0.0 0 0.00 0.00 0.00 0.00
07/20/24 3:34:34 AM 360 0.0 0.0 51 56 77.8 71.7 29.907 13.07 0.0 0 0.00 0.00 0.00 0.00
07/20/24 3:35:26 AM 360 0.0 0.0 51 56 77.8 71.7 29.907 13.07 0.0 0 0.00 0.00 0.00 0.00
07/20/24 3:36:18 AM 360 0.0 0.0 51 56 77.8 71.6 29.905 13.07 0.0 0 0.00 0.00 0.00 0.00
07/20/24 3:37:26 AM 360 0.0 0.0 51 56 77.8 71.6 29.906 13.07 0.0 0 0.00 0.00 0.00 0.00
07/20/24 3:38:18 AM 360 0.0 0.0 51 56 77.8 71.6 29.904 13.07 0.0 0 0.00 0.00 0.00 0.00
07/20/24 3:39:31 AM 360 0.0 0.0 51 55 77.8 71.6 29.906 13.07 0.0 0 0.00 0.00 0.00 0.00
07/20/24 3:40:24 AM 360 0.0 0.0 51 55 77.8 71.6 29.906 13.07 0.0 0 0.00 0.00 0.00 0.00
07/20/24 3:41:37 AM 360 0.0 0.0 51 55 77.8 71.6 29.905 13.07 0.0 0 0.00 0.00 0.00 0.00
07/20/24 3:42:23 AM 360 0.0 0.0 51 55 77.8 71.6 29.905 13.07 0.0 0 0.00 0.00 0.00 0.00
07/20/24 3:43:34 AM 360 0.0 0.0 51 55 77.8 71.6 29.906 13.07 0.0 0 0.00 0.00 0.00 0.00
07/20/24 3:44:26 AM 360 0.0 0.0 51 56 77.8 71.6 29.906 13.07 0.0 0 0.00 0.00 0.00 0.00
07/20/24 3:45:21 AM 360 0.0 0.0 51 56 77.8 71.6 29.905 13.07 0.0 0 0.00 0.00 0.00 0.00
07/20/24 3:46:32 AM 360 0.0 0.0 51 56 77.8 71.6 29.902 13.07 0.0 0 0.00 0.00 0.00 0.00
07/20/24 3:47:18 AM 360 0.0 0.0 51 56 77.8 71.5 29.902 13.07 0.0 0 0.00 0.00 0.00 0.00
07/20/24 3:48:31 AM 360 0.0 0.0 51 56 77.8 71.5 29.903 13.07 0.0 0 0.00 0.00 0.00 0.00
07/20/24 3:49:24 AM 360 0.0 0.0 51 56 77.8 71.5 29.903 13.07 0.0 0 0.00 0.00 0.00 0.00
07/20/24 3:50:16 AM 360 0.0 0.0 51 56 77.8 71.5 29.902 13.07 0.0 0 0.00 0.00 0.00 0.00
07/20/24 3:51:29 AM 360 0.0 0.0 51 56 77.8 71.5 29.902 13.07 0.0 0 0.00 0.00 0.00 0.00
07/20/24 3:52:19 AM 360 0.0 0.0 51 56 77.8 71.5 29.902 13.07 0.0 0 0.00 0.00 0.00 0.00
07/20/24 3:53:29 AM 360 0.0 0.0 51 56 77.8 71.4 29.903 13.07 0.0 0 0.00 0.00 0.00 0.00
07/20/24 3:54:21 AM 360 0.0 0.0 51 56 77.8 71.4 29.903 13.07 0.0 0 0.00 0.00 0.00 0.00
07/20/24 3:55:32 AM 360 0.0 0.0 51 56 77.8 71.4 29.902 13.07 0.0 0 0.00 0.00 0.00 0.00
07/20/24 3:56:24 AM 360 0.0 0.0 51 56 77.8 71.4 29.902 13.07 0.0 0 0.00 0.00 0.00 0.00
07/20/24 3:57:34 AM 360 0.0 0.0 51 56 77.8 71.4 29.905 13.07 0.0 0 0.00 0.00 0.00 0.00
07/20/24 3:58:24 AM 360 0.0 0.0 51 56 77.8 71.4 29.905 13.07 0.0 0 0.00 0.00 0.00 0.00
07/20/24 3:59:37 AM 360 0.0 0.0 51 56 77.8 71.4 29.904 13.07 0.0 0 0.00 0.00 0.00 0.00
07/20/24 4:00:29 AM 360 0.0 0.0 51 56 77.8 71.4 29.904 13.07 0.0 0 0.00 0.00 0.00 0.00
07/20/24 4:01:19 AM 360 0.0 0.0 51 56 77.8 71.4 29.904 13.07 0.0 0 0.00 0.00 0.00 0.00
07/20/24 4:02:32 AM 360 0.0 0.0 51 56 77.8 71.4 29.901 13.07 0.0 0 0.00 0.00 0.00 0.00
07/20/24 4:03:21 AM 360 0.0 0.0 51 56 77.8 71.4 29.901 13.07 0.0 0 0.00 0.00 0.00 0.00
07/20/24 4:04:32 AM 360 0.0 0.0 51 56 77.8 71.4 29.902 13.07 0.0 0 0.00 0.00 0.00 0.00
07/20/24 4:05:24 AM 360 0.0 0.0 51 55 77.8 71.4 29.902 13.07 0.0 0 0.00 0.00 0.00 0.00
07/20/24 4:06:34 AM 360 0.0 0.0 51 55 77.8 71.4 29.899 13.07 0.0 0 0.00 0.00 0.00 0.00
07/20/24 4:07:26 AM 360 0.0 0.0 51 55 77.8 71.3 29.903 13.07 0.0 0 0.00 0.00 0.00 0.00
07/20/24 4:08:19 AM 360 0.0 0.0 51 55 77.8 71.4 29.903 13.07 0.0 0 0.00 0.00 0.00 0.00
07/20/24 4:09:17 AM 360 0.0 0.0 51 55 77.8 71.4 29.901 13.07 0.0 0 0.00 0.00 0.00 0.00
07/20/24 4:10:30 AM 360 0.0 0.0 51 55 77.8 71.4 29.902 13.07 0.0 0 0.00 0.00 0.00 0.00
07/20/24 4:11:20 AM 360 0.0 0.0 51 55 77.8 71.3 29.902 13.07 0.0 0 0.00 0.00 0.00 0.00
07/20/24 4:12:33 AM 360 0.0 0.0 51 55 77.8 71.3 29.901 13.07 0.0 0 0.00 0.00 0.00 0.00
07/20/24 4:13:22 AM 360 0.0 0.0 51 55 77.8 71.3 29.901 13.07 0.0 0 0.00 0.00 0.00 0.00
07/20/24 4:14:30 AM 360 0.0 0.0 51 55 77.7 71.3 29.901 13.07 0.0 0 0.00 0.00 0.00 0.00
07/20/24 4:15:25 AM 360 0.0 0.0 51 55 77.7 71.3 29.901 13.07 0.0 0 0.00 0.00 0.00 0.00
07/20/24 4:16:32 AM 360 0.0 0.0 51 55 77.7 71.3 29.901 13.07 0.0 0 0.00 0.00 0.00 0.00
07/20/24 4:17:25 AM 360 0.0 0.0 51 55 77.7 71.3 29.901 13.07 0.0 0 0.00 0.00 0.00 0.00
07/20/24 4:18:38 AM 360 0.0 0.0 51 55 77.7 71.3 29.900 13.07 0.0 0 0.00 0.00 0.00 0.00
07/20/24 4:19:27 AM 360 0.0 0.0 51 55 77.7 71.3 29.900 13.07 0.0 0 0.00 0.00 0.00 0.00
07/20/24 4:20:38 AM 360 0.0 0.0 51 54 77.7 71.2 29.899 13.07 0.0 0 0.00 0.00 0.00 0.00
07/20/24 4:21:30 AM 360 0.0 0.0 51 54 77.7 71.2 29.900 13.07 0.0 0 0.00 0.00 0.00 0.00
07/20/24 4:22:19 AM 360 0.0 0.0 51 54 77.7 71.2 29.900 13.07 0.0 0 0.00 0.00 0.00 0.00
07/20/24 4:23:30 AM 360 0.0 0.0 51 53 77.7 71.2 29.897 13.07 0.0 0 0.00 0.00 0.00 0.00
07/20/24 4:24:22 AM 360 0.0 0.0 51 53 77.7 71.2 29.897 13.07 0.0 0 0.00 0.00 0.00 0.00
07/20/24 4:25:29 AM 360 0.0 0.0 51 53 77.6 71.2 29.899 13.07 0.0 0 0.00 0.00 0.00 0.00
07/20/24 4:26:22 AM 360 0.0 0.0 51 53 77.6 71.1 29.899 13.07 0.0 0 0.00 0.00 0.00 0.00
07/20/24 4:27:32 AM 360 0.0 0.0 51 53 77.7 71.1 29.897 13.07 0.0 0 0.00 0.00 0.00 0.00
07/20/24 4:28:24 AM 360 0.0 0.0 51 53 77.7 71.1 29.897 13.07 0.0 0 0.00 0.00 0.00 0.00
07/20/24 4:29:35 AM 360 0.0 0.0 51 53 77.6 71.1 29.896 13.07 0.0 0 0.00 0.00 0.00 0.00
07/20/24 4:30:24 AM 360 0.0 0.0 51 53 77.6 71.1 29.896 13.07 0.0 0 0.00 0.00 0.00 0.00
07/20/24 4:31:34 AM 360 0.0 0.0 51 53 77.6 71.1 29.898 13.07 0.0 0 0.00 0.00 0.00 0.00
07/20/24 4:32:27 AM 360 0.0 0.0 51 53 77.6 71.1 29.898 13.07 0.0 0 0.00 0.00 0.00 0.00
07/20/24 4:33:19 AM 360 0.0 0.0 51 54 77.6 71.1 29.894 13.07 0.0 0 0.00 0.00 0.00 0.00
07/20/24 4:34:29 AM 360 0.0 0.0 51 53 77.7 71.1 29.895 13.07 0.0 0 0.00 0.00 0.00 0.00
07/20/24 4:35:19 AM 360 0.0 0.0 51 54 77.7 71.1 29.895 13.07 0.0 0 0.00 0.00 0.00 0.00
07/20/24 4:36:29 AM 360 0.0 0.0 51 54 77.6 71.1 29.894 13.07 0.0 0 0.00 0.00 0.00 0.00
07/20/24 4:37:18 AM 360 0.0 0.0 51 53 77.6 71.1 29.894 13.07 0.0 0 0.00 0.00 0.00 0.00
07/20/24 4:38:32 AM 360 0.0 0.0 51 53 77.6 71.0 29.894 13.07 0.0 0 0.00 0.00 0.00 0.00
07/20/24 4:39:24 AM 360 0.0 0.0 51 53 77.6 71.0 29.894 13.07 0.0 0 0.00 0.00 0.00 0.00
07/20/24 4:40:31 AM 360 0.0 0.0 51 53 77.6 71.0 29.893 13.07 0.0 0 0.00 0.00 0.00 0.00
07/20/24 4:41:24 AM 360 0.0 0.0 51 53 77.6 71.0 29.893 13.07 0.0 0 0.00 0.00 0.00 0.00
07/20/24 4:42:34 AM 360 0.0 0.0 51 53 77.6 71.0 29.892 13.07 0.0 0 0.00 0.00 0.00 0.00
07/20/24 4:43:26 AM 360 0.0 0.0 51 53 77.6 71.0 29.892 13.07 0.0 0 0.00 0.00 0.00 0.00
07/20/24 4:44:16 AM 360 0.0 0.0 51 53 77.5 70.9 29.894 13.07 0.0 0 0.00 0.00 0.00 0.00
07/20/24 4:45:50 AM 360 0.0 0.0 51 53 77.5 70.9 29.893 13.07 0.0 0 0.00 0.00 0.00 0.00
07/20/24 4:46:19 AM 360 0.0 0.0 51 52 77.5 70.9 29.893 13.07 0.0 0 0.00 0.00 0.00 0.00
07/20/24 4:47:29 AM 360 0.0 0.0 51 52 77.5 70.9 29.895 13.07 0.0 0 0.00 0.00 0.00 0.00
07/20/24 4:48:21 AM 360 0.0 0.0 51 51 77.5 70.9 29.895 13.07 0.0 0 0.00 0.00 0.00 0.00
07/20/24 4:49:32 AM 360 0.0 0.0 51 51 77.5 70.9 29.893 13.07 0.0 0 0.00 0.00 0.00 0.00
07/20/24 4:50:24 AM 360 0.0 0.0 51 51 77.5 70.9 29.893 13.07 0.0 0 0.00 0.00 0.00 0.00
07/20/24 4:51:31 AM 360 0.0 0.0 51 51 77.5 71.0 29.895 13.07 0.0 0 0.00 0.00 0.00 0.00
07/20/24 4:52:21 AM 360 0.0 0.0 51 51 77.5 71.0 29.895 13.07 0.0 0 0.00 0.00 0.00 0.00
07/20/24 4:53:34 AM 360 0.0 0.0 51 50 77.6 71.0 29.895 13.07 0.0 0 0.00 0.00 0.00 0.00
07/20/24 4:54:27 AM 360 0.0 0.0 51 50 77.6 71.0 29.895 13.07 0.0 0 0.00 0.00 0.00 0.00
07/20/24 4:55:19 AM 360 0.0 0.0 51 50 77.6 71.1 29.895 13.07 0.0 0 0.00 0.00 0.00 0.00
07/20/24 4:56:30 AM 360 0.0 0.0 51 50 77.6 71.1 29.895 13.07 0.0 0 0.00 0.00 0.00 0.00
07/20/24 4:58:31 AM 360 0.0 0.0 51 50 77.6 71.1 29.895 13.07 0.0 0 0.00 0.00 0.00 0.00
07/20/24 4:59:24 AM 360 0.0 0.0 51 50 77.6 71.2 29.895 13.07 0.0 0 0.00 0.00 0.00 0.00
07/20/24 5:00:34 AM 360 0.0 0.0 51 51 77.6 71.2 29.895 13.07 0.0 0 0.00 0.00 0.00 0.00
07/20/24 5:01:27 AM 360 0.0 0.0 51 51 77.6 71.2 29.895 13.07 0.0 0 0.00 0.00 0.00 0.00
07/20/24 5:02:34 AM 360 0.0 0.0 51 51 77.6 71.2 29.895 13.07 0.0 0 0.00 0.00 0.00 0.00
07/20/24 5:03:23 AM 360 0.0 0.0 51 51 77.6 71.2 29.895 13.07 0.0 0 0.00 0.00 0.00 0.00
07/20/24 5:04:37 AM 360 0.0 0.0 51 51 77.6 71.2 29.896 13.07 0.0 0 0.00 0.00 0.00 0.00
07/20/24 5:05:26 AM 360 0.0 0.0 51 51 77.6 71.2 29.896 13.07 0.0 0 0.00 0.00 0.00 0.00
07/20/24 5:06:18 AM 360 0.0 0.0 51 51 77.6 71.2 29.895 13.07 0.0 0 0.00 0.00 0.00 0.00
07/20/24 5:07:26 AM 360 0.0 0.0 51 52 77.6 71.1 29.895 13.07 0.0 0 0.00 0.00 0.00 0.00
07/20/24 5:08:18 AM 360 0.0 0.0 51 52 77.5 71.1 29.895 13.07 0.0 0 0.00 0.00 0.00 0.00
07/20/24 5:09:32 AM 360 0.0 0.0 51 52 77.6 71.1 29.897 13.07 0.0 0 0.00 0.00 0.00 0.00
07/20/24 5:10:21 AM 360 0.0 0.0 51 52 77.6 71.1 29.897 13.07 0.0 0 0.00 0.00 0.00 0.00
07/20/24 5:11:35 AM 360 0.0 0.0 51 52 77.5 71.1 29.897 13.07 0.0 0 0.00 0.00 0.00 0.00
07/20/24 5:12:24 AM 360 0.0 0.0 51 52 77.5 71.0 29.897 13.07 0.0 0 0.00 0.00 0.00 0.00
07/20/24 5:13:34 AM 360 0.0 0.0 51 52 77.6 71.0 29.902 13.07 0.0 0 0.00 0.00 0.00 0.00
07/20/24 5:14:27 AM 360 0.0 0.0 51 52 77.6 71.0 29.902 13.07 0.0 0 0.00 0.00 0.00 0.00
07/20/24 5:15:40 AM 360 0.0 0.0 51 52 77.6 71.0 29.901 13.07 0.0 0 0.00 0.00 0.00 0.00
07/20/24 5:16:33 AM 360 0.0 0.0 51 52 77.6 70.9 29.903 13.07 0.0 0 0.00 0.00 0.00 0.00
07/20/24 5:17:22 AM 360 0.0 0.0 51 52 77.6 70.9 29.903 13.07 0.0 0 0.00 0.00 0.00 0.00
07/20/24 5:18:30 AM 360 0.0 0.0 51 52 77.5 70.9 29.903 13.07 0.0 0 0.00 0.00 0.00 0.00
07/20/24 5:19:22 AM 360 0.0 0.0 51 52 77.5 70.9 29.903 13.07 0.0 0 0.00 0.00 0.00 0.00
07/20/24 5:20:35 AM 360 0.0 0.0 51 53 77.5 70.9 29.902 13.07 0.0 0 0.00 0.00 0.00 0.00
07/20/24 5:21:28 AM 360 0.0 0.0 51 53 77.5 70.9 29.904 13.07 0.0 0 0.00 0.00 0.00 0.00
07/20/24 5:22:20 AM 360 0.0 0.0 51 53 77.5 70.9 29.904 13.07 0.0 0 0.00 0.00 0.00 0.00
07/20/24 5:23:31 AM 360 0.0 0.0 51 53 77.5 70.8 29.903 13.07 0.0 0 0.00 0.00 0.00 0.00
07/20/24 5:24:20 AM 360 0.0 0.0 51 53 77.5 70.8 29.903 13.07 0.0 0 0.00 0.00 0.00 0.00
07/20/24 5:25:34 AM 360 0.0 0.0 51 53 77.4 70.8 29.903 13.07 0.0 0 0.00 0.00 0.00 0.00
07/20/24 5:26:23 AM 360 0.0 0.0 51 53 77.4 70.8 29.903 13.07 0.0 0 0.00 0.00 0.00 0.00
07/20/24 5:28:28 AM 360 0.0 0.0 51 53 77.3 70.8 29.908 13.07 0.0 0 0.00 0.00 0.00 0.00
07/20/24 5:29:35 AM 360 0.0 0.0 51 53 77.4 70.7 29.906 13.07 0.0 0 0.00 0.00 0.00 0.00
07/20/24 5:30:28 AM 360 0.0 0.0 51 53 77.4 70.7 29.906 13.07 0.0 0 0.00 0.00 0.00 0.00
07/20/24 5:31:20 AM 360 0.0 0.0 51 53 77.3 70.7 29.906 13.07 0.0 0 0.00 0.00 0.00 0.00
07/20/24 5:32:31 AM 360 0.0 0.0 51 53 77.3 70.6 29.908 13.07 0.0 0 0.00 0.00 0.00 0.00
07/20/24 5:33:20 AM 360 0.0 0.0 51 53 77.3 70.6 29.908 13.07 0.0 0 0.00 0.00 0.00 0.00
07/20/24 5:34:30 AM 360 0.0 0.0 51 53 77.3 70.6 29.908 13.07 0.0 0 0.00 0.00 0.00 0.00
07/20/24 5:35:20 AM 360 0.0 0.0 51 53 77.3 70.6 29.908 13.07 0.0 0 0.00 0.00 0.00 0.00
07/20/24 5:36:33 AM 360 0.0 0.0 51 53 77.2 70.5 29.907 13.07 0.0 0 0.00 0.00 0.00 0.00
07/20/24 5:37:22 AM 360 0.0 0.0 51 53 77.2 70.5 29.907 13.07 0.0 0 0.00 0.00 0.00 0.00
07/20/24 5:38:18 AM 360 0.0 0.0 51 53 77.2 70.5 29.908 13.07 0.0 0 0.00 0.00 0.00 0.00
07/20/24 5:39:31 AM 360 0.0 0.0 51 53 77.2 70.4 29.908 13.07 0.0 0 0.00 0.00 0.00 0.00
07/20/24 5:40:21 AM 360 0.0 0.0 51 53 77.2 70.4 29.908 13.07 0.0 0 0.00 0.00 0.00 0.00
07/20/24 5:41:31 AM 360 0.0 0.0 51 54 77.1 70.4 29.909 13.07 0.0 0 0.00 0.00 0.00 0.00
07/20/24 5:42:23 AM 360 0.0 0.0 51 54 77.1 70.4 29.909 13.07 0.0 0 0.00 0.00 0.00 0.00
07/20/24 5:43:34 AM 360 0.0 0.0 51 53 77.1 70.4 29.910 13.07 0.0 0 0.00 0.00 0.00 0.00
07/20/24 5:44:23 AM 360 0.0 0.0 51 53 77.1 70.4 29.910 13.07 0.0 0 0.00 0.00 0.00 0.00
07/20/24 5:45:31 AM 360 0.0 0.0 51 53 77.1 70.4 29.911 13.07 0.0 0 0.00 0.00 0.00 0.00
07/20/24 5:46:23 AM 360 0.0 0.0 51 53 77.1 70.4 29.911 13.07 0.0 0 0.00 0.00 0.00 0.00
07/20/24 5:47:34 AM 360 0.0 0.0 51 53 77.0 70.4 29.913 13.07 0.0 0 0.00 0.00 0.00 0.00
07/20/24 5:48:26 AM 360 0.0 0.0 51 53 77.0 70.5 29.913 13.07 0.0 0 0.00 0.00 0.00 0.00
07/20/24 5:49:16 AM 360 0.0 0.0 51 53 77.0 70.5 29.914 13.07 0.0 0 0.00 0.00 0.00 0.00
07/20/24 5:50:23 AM 360 0.0 0.0 51 53 76.9 70.5 29.914 13.07 0.0 0 0.00 0.00 0.00 0.00
07/20/24 5:51:37 AM 360 0.0 0.0 51 52 76.9 70.5 29.912 13.07 0.0 0 0.00 0.00 0.00 0.00
07/20/24 5:52:26 AM 360 0.0 0.0 51 52 76.9 70.5 29.912 13.07 0.0 0 0.00 0.00 0.00 0.00
07/20/24 5:53:19 AM 360 0.0 0.0 51 52 76.9 70.6 29.915 13.07 0.0 0 0.00 0.00 0.00 0.00
07/20/24 5:54:29 AM 360 0.0 0.0 51 52 76.8 70.6 29.912 13.07 0.0 0 0.00 0.00 0.00 0.00
07/20/24 5:55:18 AM 360 0.0 0.0 51 52 76.8 70.6 29.912 13.07 0.0 0 0.00 0.00 0.00 0.00
07/20/24 5:56:26 AM 360 0.0 0.0 51 52 76.8 70.6 29.916 13.07 0.0 5 0.00 0.00 0.00 0.00
07/20/24 5:57:18 AM 360 0.0 0.0 51 52 76.8 70.7 29.914 13.07 0.0 5 0.00 0.00 0.00 0.00
07/20/24 5:58:29 AM 360 0.0 0.0 51 51 76.8 70.7 29.914 13.07 0.0 5 0.00 0.00 0.00 0.00
07/20/24 5:59:21 AM 360 0.0 0.0 51 51 76.8 70.7 29.914 13.07 0.0 5 0.00 0.00 0.00 0.00
07/20/24 6:00:35 AM 360 0.0 0.0 51 51 76.8 70.7 29.913 13.07 0.0 7 0.00 0.00 0.00 0.00
07/20/24 6:01:21 AM 360 0.0 0.0 51 51 76.8 70.7 29.913 13.07 0.0 7 0.00 0.00 0.00 0.00
07/20/24 6:02:32 AM 360 0.0 0.0 51 51 76.8 70.7 29.915 13.07 0.0 7 0.00 0.00 0.00 0.00
07/20/24 6:03:24 AM 360 0.0 0.0 51 51 76.8 70.7 29.915 13.07 0.0 7 0.00 0.00 0.00 0.00
07/20/24 6:04:16 AM 360 0.0 0.0 51 50 76.8 70.7 29.913 13.07 0.0 7 0.00 0.00 0.00 0.00
07/20/24 6:05:27 AM 360 0.0 0.0 51 50 76.7 70.7 29.916 13.07 0.0 9 0.00 0.00 0.00 0.00
07/20/24 6:06:34 AM 360 0.0 0.0 51 51 76.7 70.7 29.916 13.07 0.0 9 0.00 0.00 0.00 0.00
07/20/24 6:07:27 AM 360 0.0 0.0 51 51 76.7 70.8 29.916 13.07 0.0 9 0.00 0.00 0.00 0.00
07/20/24 6:08:19 AM 360 0.0 0.0 51 51 76.7 70.8 29.917 13.07 0.0 11 0.00 0.00 0.00 0.00
07/20/24 6:09:23 AM 360 0.0 0.0 51 51 76.7 70.8 29.916 13.07 0.0 11 0.00 0.00 0.00 0.00
07/20/24 6:10:34 AM 360 0.0 0.0 51 51 76.6 70.8 29.916 13.07 0.0 11 0.00 0.00 0.00 0.00
07/20/24 6:11:26 AM 360 0.0 0.0 51 51 76.6 70.8 29.916 13.07 0.0 12 0.00 0.00 0.00 0.00
07/20/24 6:12:34 AM 360 0.0 0.0 51 51 76.6 70.8 29.917 13.07 0.0 12 0.00 0.00 0.00 0.00
07/20/24 6:13:26 AM 360 0.0 0.0 51 51 76.6 70.8 29.917 13.07 0.0 12 0.00 0.00 0.00 0.00
07/20/24 6:14:19 AM 360 0.0 0.0 51 51 76.6 70.8 29.918 13.07 0.0 12 0.00 0.00 0.00 0.00
07/20/24 6:15:32 AM 360 0.0 0.0 51 51 76.5 70.8 29.918 13.07 0.0 12 0.00 0.00 0.00 0.00
07/20/24 6:16:25 AM 360 0.0 0.0 51 51 76.5 70.8 29.918 13.07 0.0 14 0.00 0.00 0.00 0.00
07/20/24 6:17:32 AM 360 0.0 0.0 51 51 76.5 70.8 29.918 13.07 0.0 14 0.00 0.00 0.00 0.00
07/20/24 6:18:21 AM 360 0.0 0.0 51 51 76.5 70.8 29.918 13.07 0.0 14 0.00 0.00 0.00 0.00
07/20/24 6:19:35 AM 360 0.0 0.0 51 51 76.5 70.8 29.916 13.07 0.0 14 0.00 0.00 0.00 0.00
07/20/24 6:20:24 AM 360 0.0 0.0 51 51 76.5 70.8 29.916 13.07 0.0 16 0.00 0.00 0.00 0.00
07/20/24 6:21:16 AM 360 0.0 0.0 51 51 76.5 70.8 29.917 13.07 0.0 16 0.00 0.00 0.00 0.00
07/20/24 6:22:24 AM 360 0.0 0.0 51 51 76.5 70.8 29.919 13.07 0.0 16 0.00 0.00 0.00 0.00
07/20/24 6:23:16 AM 360 0.0 0.0 51 51 76.5 70.9 29.918 13.07 0.0 16 0.00 0.00 0.00 0.00
07/20/24 6:24:27 AM 360 0.0 0.0 51 51 76.5 70.9 29.920 13.07 0.0 16 0.00 0.00 0.00 0.00
07/20/24 6:25:22 AM 360 0.0 0.0 51 51 76.5 70.9 29.920 13.07 0.0 16 0.00 0.00 0.00 0.00
07/20/24 6:26:33 AM 360 0.0 0.0 51 51 76.4 70.9 29.922 13.07 0.0 16 0.00 0.00 0.00 0.00
07/20/24 6:27:22 AM 360 0.0 0.0 51 51 76.4 70.9 29.922 13.07 0.0 16 0.00 0.00 0.00 0.00
07/20/24 6:28:30 AM 360 0.0 0.0 51 51 76.4 70.9 29.919 13.07 0.0 19 0.00 0.00 0.00 0.00
07/20/24 6:29:22 AM 360 0.0 0.0 51 51 76.4 70.9 29.919 13.07 0.0 19 0.00 0.00 0.00 0.00
07/20/24 6:30:57 AM 360 0.0 0.0 51 51 76.3 71.0 29.919 13.07 0.0 19 0.00 0.00 0.00 0.00
07/20/24 6:31:28 AM 360 0.0 0.0 51 51 76.3 71.0 29.919 13.07 0.0 30 0.00 0.00 0.00 0.00
07/20/24 6:32:20 AM 360 0.0 0.0 51 51 76.4 71.0 29.920 13.07 0.0 35 0.00 0.00 0.00 0.00
07/20/24 6:33:28 AM 360 0.0 0.0 51 51 76.2 71.1 29.917 13.07 0.0 35 0.00 0.00 0.00 0.00
07/20/24 6:34:20 AM 360 0.0 0.0 51 51 76.2 71.1 29.917 13.07 0.0 37 0.00 0.00 0.00 0.00
07/20/24 6:35:31 AM 360 0.0 0.0 51 51 76.2 71.2 29.918 13.07 0.0 39 0.00 0.00 0.00 0.00
07/20/24 6:36:23 AM 360 0.0 0.0 51 51 76.2 71.3 29.918 13.07 0.0 39 0.00 0.00 0.00 0.00
07/20/24 6:37:34 AM 360 0.0 0.0 51 51 76.2 71.3 29.916 13.07 0.0 42 0.00 0.00 0.00 0.00
07/20/24 6:38:26 AM 360 0.0 0.0 51 52 76.2 71.4 29.916 13.07 0.0 42 0.00 0.00 0.00 0.00
07/20/24 6:39:33 AM 360 0.0 0.0 51 52 76.2 71.5 29.916 13.07 0.0 46 0.00 0.00 0.00 0.00
07/20/24 6:40:26 AM 360 0.0 0.0 51 52 76.2 71.5 29.916 13.07 0.0 47 0.00 0.00 0.00 0.00
07/20/24 6:41:18 AM 360 0.0 0.0 51 52 76.2 71.5 29.917 13.07 0.0 47 0.00 0.00 0.00 0.00
07/20/24 6:42:32 AM 360 0.0 0.0 51 52 76.2 71.6 29.919 13.07 0.0 51 0.00 0.00 0.00 0.00
07/20/24 6:43:21 AM 360 0.0 0.0 51 52 76.2 71.6 29.919 13.07 0.0 53 0.00 0.00 0.00 0.00
07/20/24 6:44:29 AM 360 0.0 0.0 51 52 76.1 71.7 29.916 13.07 0.0 53 0.00 0.00 0.00 0.00
07/20/24 6:45:24 AM 360 0.0 0.0 51 52 76.1 71.7 29.916 13.07 0.0 58 0.00 0.00 0.00 0.00
07/20/24 6:46:32 AM 360 0.0 0.0 51 52 76.0 71.8 29.919 13.07 0.0 60 0.00 0.00 0.00 0.00
07/20/24 6:47:24 AM 360 0.0 0.0 51 52 76.0 71.9 29.919 13.07 0.0 60 0.00 0.00 0.00 0.00
07/20/24 6:48:35 AM 360 0.0 0.0 51 52 76.0 71.9 29.917 13.07 0.0 65 0.00 0.00 0.00 0.00
07/20/24 6:49:21 AM 360 0.0 0.0 51 52 76.0 72.0 29.917 13.07 0.0 69 0.00 0.00 0.00 0.00
07/20/24 6:50:34 AM 360 0.0 0.0 51 51 76.0 72.1 29.917 13.07 0.0 72 0.00 0.00 0.00 0.00
07/20/24 6:51:24 AM 360 0.0 0.0 51 51 76.0 72.1 29.917 13.07 0.0 72 0.00 0.00 0.00 0.00
07/20/24 6:52:16 AM 360 0.0 0.0 51 51 76.0 72.2 29.916 13.07 0.0 72 0.00 0.00 0.00 0.00
07/20/24 6:53:30 AM 360 0.0 0.0 51 52 76.0 72.3 29.916 13.07 0.0 81 0.00 0.00 0.00 0.00
07/20/24 6:54:22 AM 360 0.0 0.0 51 52 76.0 72.3 29.916 13.07 0.0 81 0.00 0.00 0.00 0.00
07/20/24 6:55:30 AM 360 0.0 0.0 51 52 76.0 72.4 29.917 13.07 0.0 81 0.00 0.00 0.00 0.00
07/20/24 6:56:22 AM 360 0.0 0.0 51 53 76.0 72.4 29.917 13.07 0.0 81 0.00 0.00 0.00 0.00
07/20/24 6:57:32 AM 360 0.0 0.0 51 53 75.9 72.5 29.916 13.07 0.0 95 0.00 0.00 0.00 0.00
07/20/24 6:58:25 AM 360 0.0 0.0 51 53 75.9 72.6 29.916 13.07 0.0 95 0.00 0.00 0.00 0.00
07/20/24 6:59:17 AM 360 0.0 0.0 51 53 75.9 72.7 29.917 13.07 0.0 104 0.00 0.00 0.00 0.00
07/20/24 7:00:28 AM 360 0.0 0.0 51 53 75.9 72.8 29.912 13.07 0.0 104 0.00 0.00 0.00 0.00
07/20/24 7:01:17 AM 360 0.0 0.0 51 54 75.9 72.8 29.916 13.07 0.0 109 0.00 0.00 0.00 0.00
07/20/24 7:02:31 AM 360 0.0 0.0 51 54 75.9 73.0 29.916 13.07 0.0 113 0.00 0.00 0.00 0.00
07/20/24 7:03:23 AM 360 0.0 0.0 51 54 75.9 73.2 29.916 13.07 0.0 113 0.00 0.00 0.00 0.00
07/20/24 7:04:34 AM 360 0.0 0.0 51 54 75.9 73.3 29.917 13.07 0.0 118 0.00 0.00 0.00 0.00
07/20/24 7:05:20 AM 360 0.0 0.0 51 54 75.9 73.5 29.917 13.07 0.0 120 0.00 0.00 0.00 0.00
07/20/24 7:06:31 AM 360 0.0 0.0 51 52 75.9 73.7 29.917 13.07 0.0 123 0.00 0.00 0.00 0.00
07/20/24 7:07:23 AM 360 0.0 0.0 51 52 75.9 73.7 29.917 13.07 0.0 123 0.00 0.00 0.00 0.00
07/20/24 7:08:34 AM 360 0.0 0.0 51 52 75.9 73.9 29.914 13.07 0.0 123 0.00 0.00 0.00 0.00
07/20/24 7:09:26 AM 360 0.0 0.0 51 53 75.9 74.0 29.914 13.07 0.0 123 0.00 0.00 0.00 0.00
07/20/24 7:10:18 AM 360 0.0 0.0 51 53 75.9 74.1 29.917 13.07 0.0 123 0.00 0.00 0.00 0.00
07/20/24 7:11:26 AM 360 0.0 0.0 51 53 76.0 74.2 29.918 13.07 0.0 137 0.00 0.00 0.00 0.00
07/20/24 7:12:18 AM 360 0.0 0.0 51 52 75.9 74.3 29.914 13.07 0.0 144 0.00 0.00 0.00 0.00
07/20/24 7:13:32 AM 360 0.0 0.0 51 52 75.9 74.4 29.918 13.07 0.0 144 0.00 0.00 0.00 0.00
07/20/24 7:14:24 AM 360 0.0 0.0 51 52 75.9 74.6 29.918 13.07 0.0 144 0.00 0.00 0.00 0.00
07/20/24 7:15:35 AM 360 0.0 0.0 51 51 75.9 74.7 29.919 13.07 0.0 144 0.00 0.00 0.00 0.00
07/20/24 7:16:21 AM 360 0.0 0.0 51 51 75.9 74.8 29.919 13.07 0.0 156 0.00 0.00 0.00 0.00
07/20/24 7:17:35 AM 360 0.0 0.0 51 51 75.9 75.0 29.919 13.07 0.0 156 0.00 0.00 0.00 0.00
07/20/24 7:18:24 AM 360 0.0 0.0 51 51 75.9 75.1 29.919 13.07 0.0 156 0.00 0.00 0.00 0.00
07/20/24 7:19:20 AM 360 0.0 0.0 51 50 75.9 75.2 29.916 13.07 0.0 165 0.00 0.00 0.00 0.00
07/20/24 7:20:30 AM 360 0.0 0.0 51 51 75.9 75.4 29.918 13.07 0.0 169 0.00 0.00 0.00 0.00
07/20/24 7:21:17 AM 360 0.0 0.0 51 51 75.9 75.5 29.918 13.07 0.0 172 0.00 0.00 0.00 0.00
07/20/24 7:22:27 AM 360 0.0 0.0 51 51 75.8 75.8 29.919 13.07 0.0 172 0.00 0.00 0.00 0.00
07/20/24 7:23:20 AM 360 0.0 0.0 51 50 75.8 75.9 29.919 13.07 0.0 178 0.00 0.00 0.00 0.00
07/20/24 7:24:30 AM 360 0.0 0.0 51 50 75.9 76.1 29.920 13.07 0.0 183 0.00 0.00 0.00 0.00
07/20/24 7:25:23 AM 360 0.0 0.0 51 49 75.9 76.2 29.920 13.07 0.0 183 0.00 0.00 0.00 0.00
07/20/24 7:26:30 AM 360 0.0 0.0 51 48 75.8 76.5 29.917 13.07 0.0 186 0.00 0.00 0.00 0.00
07/20/24 7:27:23 AM 360 0.0 0.0 51 48 75.8 76.7 29.917 13.07 0.0 192 0.00 0.00 0.00 0.00
07/20/24 7:28:36 AM 360 0.0 0.0 51 48 75.9 76.9 29.921 13.07 0.0 192 0.00 0.00 0.00 0.00
07/20/24 7:29:29 AM 360 0.0 0.0 51 48 75.8 77.0 29.921 13.07 0.0 197 0.00 0.00 0.00 0.00
07/20/24 7:30:21 AM 360 0.0 0.0 51 48 75.8 77.1 29.920 13.07 0.0 197 0.00 0.00 0.00 0.00
07/20/24 7:31:32 AM 360 0.0 0.0 51 48 75.9 77.3 29.922 13.07 0.0 204 0.00 0.00 0.00 0.00
07/20/24 7:32:21 AM 360 0.0 0.0 51 48 75.9 77.4 29.922 13.07 0.0 207 0.00 0.00 0.00 0.00
07/20/24 7:33:32 AM 360 0.0 0.0 51 48 75.8 77.6 29.923 13.07 0.0 209 0.00 0.00 0.00 0.00
07/20/24 7:34:24 AM 360 0.0 0.0 51 48 75.8 77.8 29.923 13.07 0.0 213 0.00 0.00 0.00 0.00
07/20/24 7:35:35 AM 360 0.0 0.0 51 48 75.8 78.0 29.924 13.07 0.0 213 0.00 0.00 0.00 0.00
07/20/24 7:36:27 AM 360 0.0 0.0 51 46 75.8 78.2 29.924 13.07 0.5 218 0.00 0.00 0.00 0.00
07/20/24 7:37:34 AM 360 0.0 0.0 51 46 75.8 78.5 29.923 13.07 0.5 221 0.00 0.00 0.00 0.00
07/20/24 7:38:24 AM 360 0.0 0.0 51 45 75.8 78.7 29.923 13.07 0.5 223 0.00 0.00 0.00 0.00
07/20/24 7:39:16 AM 360 0.0 0.0 51 45 75.8 78.9 29.924 13.07 0.5 223 0.00 0.00 0.00 0.00
07/20/24 7:40:27 AM 360 0.0 0.0 51 44 75.8 79.2 29.923 13.07 0.5 232 0.00 0.00 0.00 0.00
07/20/24 7:41:19 AM 360 0.0 0.0 51 44 75.8 79.4 29.925 13.07 0.5 232 0.00 0.00 0.00 0.00
07/20/24 7:42:27 AM 360 0.0 0.0 51 43 75.8 79.6 29.923 13.07 0.5 236 0.00 0.00 0.00 0.00
07/20/24 7:43:16 AM 360 0.0 0.0 51 43 75.8 79.8 29.925 13.07 0.5 243 0.00 0.00 0.00 0.00
07/20/24 7:44:30 AM 360 0.0 0.0 51 43 75.8 80.0 29.925 13.07 0.5 244 0.00 0.00 0.00 0.00
07/20/24 7:45:43 AM 360 0.0 0.0 51 43 75.8 80.2 29.925 13.07 0.6 244 0.00 0.00 0.00 0.00
07/20/24 7:46:35 AM 360 0.0 0.0 51 43 75.8 80.5 29.924 13.07 0.6 244 0.00 0.00 0.00 0.00
07/20/24 7:47:25 AM 360 0.0 0.0 51 43 75.8 80.7 29.924 13.07 0.6 251 0.00 0.00 0.00 0.00
07/20/24 7:48:36 AM 360 0.0 0.0 51 42 75.8 80.8 29.926 13.07 0.6 251 0.00 0.00 0.00 0.00
07/20/24 7:49:25 AM 360 0.0 0.0 51 42 75.8 81.0 29.926 13.07 0.6 258 0.00 0.00 0.00 0.00
07/20/24 7:50:17 AM 360 0.0 0.0 51 42 75.8 81.2 29.924 13.07 0.6 262 0.00 0.00 0.00 0.00
07/20/24 7:51:31 AM 360 0.0 0.0 51 41 75.8 81.3 29.928 13.07 0.6 262 0.00 0.00 0.00 0.00
07/20/24 7:52:23 AM 360 0.0 0.0 51 41 75.8 81.4 29.928 13.07 0.6 271 0.00 0.00 0.00 0.00
07/20/24 7:53:31 AM 360 0.0 0.0 51 41 75.8 81.6 29.927 13.07 0.6 274 0.00 0.00 0.00 0.00
07/20/24 7:54:20 AM 360 0.0 0.0 51 41 75.8 81.8 29.927 13.07 0.7 274 0.00 0.00 0.00 0.00
07/20/24 7:55:34 AM 360 0.0 0.0 51 41 75.8 82.0 29.928 13.07 0.7 283 0.00 0.00 0.00 0.00
07/20/24 7:56:23 AM 360 0.0 0.0 51 41 75.8 82.0 29.928 13.07 0.7 283 0.00 0.00 0.00 0.00
07/20/24 7:57:37 AM 360 0.0 0.0 51 40 75.8 82.4 29.927 13.07 0.7 283 0.00 0.00 0.00 0.00
07/20/24 7:58:26 AM 360 0.0 0.0 51 40 75.8 82.6 29.927 13.07 0.7 283 0.00 0.00 0.00 0.00
07/20/24 7:59:34 AM 360 0.0 0.0 51 40 75.8 82.8 29.928 13.07 0.7 283 0.00 0.00 0.00 0.00
07/20/24 8:00:29 AM 360 0.0 0.0 51 40 75.8 82.9 29.928 13.07 0.7 301 0.00 0.00 0.00 0.00
07/20/24 8:01:19 AM 360 0.0 0.0 51 39 75.8 83.0 29.931 13.07 0.7 301 0.00 0.00 0.00 0.00
07/20/24 8:02:32 AM 360 0.0 0.0 51 38 75.8 83.2 29.931 13.07 0.8 301 0.00 0.00 0.00 0.00
07/20/24 8:03:22 AM 360 0.0 0.0 51 38 75.8 83.3 29.931 13.07 0.8 301 0.00 0.00 0.00 0.00
07/20/24 8:04:29 AM 360 0.0 0.0 51 38 75.8 83.4 29.929 13.07 0.8 301 0.00 0.00 0.00 0.00
07/20/24 8:05:22 AM 360 0.0 0.0 51 37 75.8 83.6 29.929 13.07 0.8 318 0.00 0.00 0.00 0.00
07/20/24 8:06:35 AM 360 0.0 0.0 51 37 75.8 83.7 29.928 13.07 0.8 322 0.00 0.00 0.00 0.00
07/20/24 8:07:25 AM 360 0.0 0.0 51 36 75.8 83.8 29.928 13.07 0.8 322 0.00 0.00 0.00 0.00
07/20/24 8:08:26 AM 360 0.0 0.0 51 36 75.8 83.9 29.929 13.07 0.8 329 0.00 0.00 0.00 0.00
07/20/24 8:09:19 AM 360 0.0 0.0 51 36 75.8 84.0 29.927 13.07 0.8 334 0.00 0.00 0.00 0.00
07/20/24 8:10:30 AM 360 0.0 0.0 51 36 75.9 84.1 29.929 13.07 0.9 338 0.00 0.00 0.00 0.00
07/20/24 8:11:22 AM 360 0.0 0.0 51 35 75.9 84.2 29.929 13.07 0.9 338 0.00 0.00 0.00 0.00
07/20/24 8:12:33 AM 360 0.0 0.0 51 36 75.9 84.4 29.928 13.07 0.9 318 0.00 0.00 0.00 0.00
07/20/24 8:13:25 AM 360 0.0 0.0 51 35 75.9 84.5 29.928 13.07 0.9 304 0.00 0.00 0.00 0.00
07/20/24 8:14:18 AM 360 0.0 0.0 51 35 75.9 84.7 29.931 13.07 0.9 272 0.00 0.00 0.00 0.00
07/20/24 8:15:28 AM 360 0.0 0.0 51 35 75.9 84.7 29.930 13.07 0.9 262 0.00 0.00 0.00 0.00
07/20/24 8:16:18 AM 360 0.0 0.0 51 34 75.9 84.8 29.926 13.07 0.9 262 0.00 0.00 0.00 0.00
07/20/24 8:17:29 AM 360 0.0 0.0 51 34 75.9 84.9 29.929 13.07 0.9 253 0.00 0.00 0.00 0.00
07/20/24 8:18:21 AM 360 0.0 0.0 51 34 75.9 85.0 29.929 13.07 0.9 253 0.00 0.00 0.00 0.00
07/20/24 8:19:32 AM 360 0.0 0.0 51 34 75.9 85.1 29.929 13.07 0.9 260 0.00 0.00 0.00 0.00
07/20/24 8:20:21 AM 360 0.0 0.0 51 34 75.9 85.2 29.929 13.07 0.9 274 0.00 0.00 0.00 0.00
07/20/24 8:21:32 AM 360 0.0 0.0 51 34 75.9 85.3 29.930 13.07 0.9 279 0.00 0.00 0.00 0.00
07/20/24 8:22:21 AM 360 0.0 0.0 51 34 75.9 85.3 29.930 13.07 0.9 283 0.00 0.00 0.00 0.00
07/20/24 8:23:35 AM 360 0.0 0.0 51 34 76.0 85.3 29.927 13.07 1.0 332 0.00 0.00 0.00 0.00
07/20/24 8:24:27 AM 360 0.0 0.0 51 34 76.0 85.4 29.927 13.07 1.0 332 0.00 0.00 0.00 0.00
07/20/24 8:25:16 AM 360 0.0 0.0 51 34 75.9 85.4 29.927 13.07 1.1 313 0.00 0.00 0.00 0.00
07/20/24 8:26:24 AM 360 0.0 0.0 51 34 76.0 85.5 29.929 13.07 1.1 309 0.00 0.00 0.00 0.00
07/20/24 8:27:16 AM 360 0.0 0.0 51 34 75.9 85.6 29.926 13.07 1.1 309 0.00 0.00 0.00 0.00
07/20/24 8:28:27 AM 360 0.0 0.0 51 34 76.0 85.6 29.927 13.07 1.2 396 0.00 0.00 0.00 0.00
07/20/24 8:29:19 AM 360 0.0 0.0 51 35 76.0 85.6 29.927 13.07 1.2 387 0.00 0.00 0.00 0.00
07/20/24 8:30:33 AM 360 0.0 0.0 51 35 76.0 85.7 29.925 13.07 1.2 387 0.00 0.00 0.00 0.00
07/20/24 8:31:19 AM 360 0.0 0.0 51 36 76.0 85.7 29.925 13.07 1.2 401 0.00 0.00 0.00 0.00
07/20/24 8:32:30 AM 360 0.0 0.0 51 36 76.0 85.8 29.926 13.07 1.2 418 0.00 0.00 0.00 0.00
07/20/24 8:33:23 AM 360 0.0 0.0 51 36 76.0 85.8 29.926 13.07 1.3 418 0.00 0.00 0.00 0.00
07/20/24 8:34:33 AM 360 0.0 0.0 51 36 76.0 85.9 29.927 13.07 1.3 418 0.00 0.00 0.00 0.00
07/20/24 8:35:26 AM 360 0.0 0.0 51 36 76.0 86.1 29.927 13.07 1.3 403 0.00 0.00 0.00 0.00
07/20/24 8:36:33 AM 360 0.0 0.0 51 36 76.1 86.3 29.921 13.07 1.3 403 0.00 0.00 0.00 0.00
07/20/24 8:37:26 AM 360 0.0 0.0 51 37 76.1 86.4 29.921 13.07 1.3 427 0.00 0.00 0.00 0.00
07/20/24 8:38:36 AM 360 0.0 0.0 51 35 76.0 86.7 29.920 13.07 1.3 427 0.00 0.00 0.00 0.00
07/20/24 8:39:26 AM 360 0.0 0.0 51 35 76.0 86.8 29.920 13.07 1.3 427 0.00 0.00 0.00 0.00
07/20/24 8:40:18 AM 360 0.0 0.0 51 35 76.0 87.0 29.921 13.07 1.3 434 0.00 0.00 0.00 0.00
07/20/24 8:41:26 AM 360 0.0 0.0 51 35 76.0 87.1 29.921 13.07 1.3 438 0.00 0.00 0.00 0.00
07/20/24 8:42:15 AM 360 0.0 0.0 51 34 76.0 87.2 29.923 13.07 1.3 438 0.00 0.00 0.00 0.00
07/20/24 8:43:29 AM 360 0.0 0.0 51 34 76.1 87.4 29.920 13.07 1.3 457 0.00 0.00 0.00 0.00
07/20/24 8:44:21 AM 360 0.0 0.0 51 33 76.1 87.4 29.920 13.07 1.5 457 0.00 0.00 0.00 0.00
07/20/24 8:45:35 AM 360 0.0 0.0 51 32 76.1 87.7 29.921 13.07 1.5 457 0.00 0.00 0.00 0.00
07/20/24 8:46:24 AM 360 0.0 0.0 51 32 76.1 87.8 29.921 13.07 1.5 452 0.00 0.00 0.00 0.00
07/20/24 8:47:32 AM 360 0.0 0.0 51 31 76.1 87.9 29.922 13.07 1.5 452 0.00 0.00 0.00 0.00
07/20/24 8:48:24 AM 360 0.0 0.0 51 31 76.1 88.1 29.922 13.07 1.5 452 0.00 0.00 0.00 0.00
07/20/24 8:49:38 AM 360 0.0 0.0 51 31 76.2 88.2 29.924 13.07 1.6 452 0.00 0.00 0.00 0.00
07/20/24 8:50:27 AM 360 0.0 0.0 51 31 76.1 88.3 29.924 13.07 1.6 452 0.00 0.00 0.00 0.00
07/20/24 8:51:20 AM 360 0.0 0.0 51 31 76.1 88.4 29.924 13.07 1.6 452 0.00 0.00 0.00 0.00
07/20/24 8:52:27 AM 360 0.0 0.0 51 31 76.2 88.6 29.926 13.07 1.6 452 0.00 0.00 0.00 0.00
07/20/24 8:53:20 AM 360 0.0 0.0 51 31 76.2 88.7 29.925 13.07 1.6 452 0.00 0.00 0.00 0.00
07/20/24 8:54:31 AM 360 0.0 0.0 51 31 76.2 88.8 29.925 13.07 1.6 455 0.00 0.00 0.00 0.00
07/20/24 8:55:23 AM 360 0.0 0.0 51 32 76.2 88.9 29.925 13.07 1.6 455 0.00 0.00 0.00 0.00
07/20/24 8:56:37 AM 360 0.0 0.0 51 31 76.2 89.1 29.926 13.07 1.6 455 0.00 0.00 0.00 0.00
07/20/24 8:57:23 AM 360 0.0 0.0 51 30 76.2 89.2 29.926 13.07 1.6 455 0.00 0.00 0.00 0.00
07/20/24 8:58:37 AM 360 0.0 0.0 51 30 76.2 89.3 29.925 13.07 1.7 462 0.00 0.00 0.00 0.00
07/20/24 8:59:26 AM 360 0.0 0.0 51 30 76.2 89.4 29.925 13.07 1.7 373 0.00 0.00 0.00 0.00

University Police wind advisory reference

For campus closure information please call the campus Emergency Hotline at (909) 537-5999

© All rights reserved. Unauthorized duplication or distribution is prohibited

Never base important decisions on this or any weather information obtained from the Internet

California State University, San Bernardino
5500 University Parkway, San Bernardino, CA. 92407
Phone: (909) 537-5108, Email: Weather Webmaster
Last Updated: